Location: Nairn
(57.5833°N, 3.8667°W)
Time: 01:04:40
(UTC+00:00)

Transit 2A - Pass Details

Date: 03 December 2020
Orbit: 598 x 960 km, 66.7° (Epoch: 20 January)

Event Time Altitude Azimuth Distance (km) Brightness Sun altitude
Rises 16:33:55 0° 196° (SSW) 3,616 10.3 -7.2°
Reaches altitude 10° 16:36:38 10° 190° (S) 2,652 9.4 -7.6°
Maximum altitude 16:42:26 43° 122° (ESE) 1,249 6.9 -8.2°
Enters shadow 16:47:45 11° 53° (NE) 2,447 7.9 -8.9°
